Time,TemperatureF,DewpointF,PressureIn,WindDirection,WindDirectionDegrees,WindSpeedMPH,WindSpeedGustMPH,Humidity,HourlyPrecipIn,Conditions,Clouds,dailyrainin,SoftwareType,DateUTC
2015-06-03 00:01:00,71.4,70.5,29.64,SSE,160,0.0,0.0,97,0.07,RA,,0.00,WeatherDisplay:10.37,2015-06-02 15:01:00,
2015-06-03 00:06:00,71.4,70.5,29.64,SSE,160,0.0,0.0,97,0.09,RA,,0.02,WeatherDisplay:10.37,2015-06-02 15:06:00,
2015-06-03 00:11:00,71.4,70.5,29.64,SSE,160,0.0,0.0,97,0.10,RA,,0.03,WeatherDisplay:10.37,2015-06-02 15:11:00,
2015-06-03 00:16:00,71.4,70.5,29.64,SSE,160,0.0,0.0,97,0.13,RA,,0.06,WeatherDisplay:10.37,2015-06-02 15:16:00,
2015-06-03 00:21:00,71.4,70.5,29.63,SSE,160,1.2,0.0,97,0.15,RA,,0.08,WeatherDisplay:10.37,2015-06-02 15:21:00,
2015-06-03 00:26:00,71.4,70.5,29.63,SSE,160,1.0,1.0,97,0.17,RA,,0.10,WeatherDisplay:10.37,2015-06-02 15:26:00,
2015-06-03 00:31:00,71.4,70.5,29.63,SSE,160,1.2,1.2,97,0.18,RA,,0.11,WeatherDisplay:10.37,2015-06-02 15:31:00,
2015-06-03 00:36:00,71.4,70.5,29.62,SSE,160,1.2,1.2,97,0.19,RA,,0.13,WeatherDisplay:10.37,2015-06-02 15:36:00,
2015-06-03 00:41:00,71.4,70.5,29.62,SSE,160,0.0,0.0,97,0.17,RA,,0.14,WeatherDisplay:10.37,2015-06-02 15:41:00,
2015-06-03 00:46:00,71.4,70.5,29.63,SSE,160,0.0,0.0,97,0.17,RA,,0.16,WeatherDisplay:10.37,2015-06-02 15:46:00,
2015-06-03 00:51:00,71.5,70.6,29.63,SSE,160,2.3,2.3,97,0.19,RA,,0.17,WeatherDisplay:10.37,2015-06-02 15:51:00,
2015-06-03 00:56:00,71.5,70.6,29.62,SSE,160,0.0,0.0,97,0.23,RA,,0.23,WeatherDisplay:10.37,2015-06-02 15:56:00,
2015-06-03 01:01:00,71.5,70.6,29.62,WNW,300,2.3,0.0,97,0.25,RA,,0.25,WeatherDisplay:10.37,2015-06-02 16:01:00,
2015-06-03 01:06:00,71.5,70.6,29.62,WNW,301,0.0,0.0,97,0.25,RA,,0.27,WeatherDisplay:10.37,2015-06-02 16:06:00,
2015-06-03 01:11:00,71.6,70.7,29.62,WNW,300,2.3,2.3,97,0.24,RA,,0.28,WeatherDisplay:10.37,2015-06-02 16:11:00,
2015-06-03 01:16:00,71.5,70.6,29.62,WNW,300,2.3,2.3,97,0.22,RA,,0.28,WeatherDisplay:10.37,2015-06-02 16:16:00,
2015-06-03 01:21:00,71.5,70.6,29.62,WNW,300,0.0,0.0,97,0.20,RA,,0.28,WeatherDisplay:10.37,2015-06-02 16:21:00,
2015-06-03 01:26:00,71.5,70.6,29.61,WNW,300,0.0,0.0,97,0.20,RA,,0.30,WeatherDisplay:10.37,2015-06-02 16:26:00,
2015-06-03 01:31:00,71.5,70.6,29.61,WNW,300,2.3,2.3,97,0.20,RA,,0.31,WeatherDisplay:10.37,2015-06-02 16:31:00,
2015-06-03 01:36:00,71.5,70.6,29.61,WNW,301,1.2,0.0,97,0.19,RA,,0.31,WeatherDisplay:10.37,2015-06-02 16:36:00,
2015-06-03 01:41:00,71.5,70.6,29.61,WNW,300,0.0,0.0,97,0.17,RA,,0.31,WeatherDisplay:10.37,2015-06-02 16:41:00,
2015-06-03 01:46:00,71.5,70.6,29.61,WNW,301,1.2,0.0,97,0.17,CLR,,0.31,WeatherDisplay:10.37,2015-06-02 16:46:00,
2015-06-03 01:51:00,71.5,70.6,29.60,WNW,300,1.2,1.2,97,0.14,CLR,,0.31,WeatherDisplay:10.37,2015-06-02 16:51:00,
2015-06-03 01:56:00,71.5,70.6,29.61,SSW,211,3.5,3.5,97,0.09,CLR,,0.31,WeatherDisplay:10.37,2015-06-02 16:56:00,
2015-06-03 02:01:00,71.5,70.6,29.61,SSE,160,3.5,3.5,97,0.06,CLR,,0.31,WeatherDisplay:10.37,2015-06-02 17:01:00,
2015-06-03 02:06:00,71.5,70.6,29.61,South,189,0.0,0.0,97,0.06,RA,,0.32,WeatherDisplay:10.37,2015-06-02 17:06:00,
2015-06-03 02:11:00,71.4,70.5,29.61,WSW,239,6.9,6.9,97,0.06,RA,,0.33,WeatherDisplay:10.37,2015-06-02 17:11:00,
2015-06-03 02:16:00,71.3,70.4,29.61,WSW,239,2.0,2.0,97,0.06,RA,,0.34,WeatherDisplay:10.37,2015-06-02 17:16:00,
2015-06-03 02:21:00,71.3,70.4,29.61,WSW,239,3.5,3.5,97,0.06,RA,,0.34,WeatherDisplay:10.37,2015-06-02 17:21:00,
2015-06-03 02:26:00,71.2,70.3,29.61,WSW,238,3.5,3.5,97,0.06,RA,,0.35,WeatherDisplay:10.37,2015-06-02 17:26:00,
2015-06-03 02:31:00,71.2,70.6,29.61,WSW,238,4.0,4.0,98,0.05,RA,,0.35,WeatherDisplay:10.37,2015-06-02 17:31:00,
2015-06-03 02:36:00,71.2,70.6,29.60,SW,235,2.3,2.3,98,0.04,RA,,0.35,WeatherDisplay:10.37,2015-06-02 17:36:00,
2015-06-03 02:41:00,71.3,70.7,29.60,SW,235,0.0,0.3,98,0.05,RA,,0.36,WeatherDisplay:10.37,2015-06-02 17:41:00,
2015-06-03 02:46:00,71.3,70.7,29.61,SW,234,3.5,0.0,98,0.05,RA,,0.36,WeatherDisplay:10.37,2015-06-02 17:46:00,
2015-06-03 02:51:00,71.2,70.6,29.60,SW,235,1.2,0.0,98,0.05,CLR,,0.37,WeatherDisplay:10.37,2015-06-02 17:51:00,
2015-06-03 02:56:00,71.1,70.5,29.60,SW,235,3.5,3.5,98,0.06,RA,,0.37,WeatherDisplay:10.37,2015-06-02 17:56:00,
2015-06-03 03:01:00,71.1,70.5,29.60,SW,235,3.5,3.5,98,0.06,RA,,0.37,WeatherDisplay:10.37,2015-06-02 18:01:00,
2015-06-03 03:06:00,71.1,70.5,29.60,SW,235,1.2,1.4,98,0.05,CLR,,0.37,WeatherDisplay:10.37,2015-06-02 18:06:00,
2015-06-03 03:11:00,71.2,70.6,29.60,SW,235,2.3,2.3,98,0.04,CLR,,0.37,WeatherDisplay:10.37,2015-06-02 18:11:00,
2015-06-03 03:16:00,71.1,70.5,29.60,SW,235,1.2,0.0,98,0.04,RA,,0.38,WeatherDisplay:10.37,2015-06-02 18:16:00,
2015-06-03 03:21:00,71.2,70.6,29.60,SW,235,0.0,0.0,98,0.04,RA,,0.38,WeatherDisplay:10.37,2015-06-02 18:21:00,
2015-06-03 03:26:00,71.2,70.6,29.60,SW,235,0.0,0.0,98,0.03,,,0.38,WeatherDisplay:10.37,2015-06-02 18:26:00,
2015-06-03 03:32:00,71.3,70.7,29.60,SW,235,0.0,0.0,98,0.02,CLR,,0.38,WeatherDisplay:10.37,2015-06-02 18:32:00,
2015-06-03 03:37:00,71.3,70.7,29.60,SW,235,3.5,3.5,98,0.03,RA,,0.39,WeatherDisplay:10.37,2015-06-02 18:37:00,
2015-06-03 03:42:00,71.2,70.6,29.60,SW,235,2.3,2.3,98,0.02,RA,,0.39,WeatherDisplay:10.37,2015-06-02 18:42:00,
2015-06-03 03:47:00,71.1,70.5,29.60,SW,235,3.5,3.5,98,0.02,CLR,,0.39,WeatherDisplay:10.37,2015-06-02 18:47:00,
2015-06-03 03:52:00,71.0,70.4,29.60,SW,235,4.0,4.0,98,0.02,RA,,0.39,WeatherDisplay:10.37,2015-06-02 18:52:00,
2015-06-03 03:57:00,70.9,70.3,29.60,SW,235,2.3,2.3,98,0.03,RA,,0.40,WeatherDisplay:10.37,2015-06-02 18:57:00,
2015-06-03 04:02:00,70.8,70.2,29.60,SW,235,2.3,2.3,98,0.03,RA,,0.40,WeatherDisplay:10.37,2015-06-02 19:02:00,
2015-06-03 04:07:00,70.7,70.1,29.60,West,273,4.6,4.6,98,0.03,,,0.40,WeatherDisplay:10.37,2015-06-02 19:07:00,
2015-06-03 04:12:00,70.4,69.8,29.61,WSW,253,3.5,3.5,98,0.03,CLR,,0.40,WeatherDisplay:10.37,2015-06-02 19:12:00,
2015-06-03 04:17:00,70.2,69.3,29.61,West,274,3.5,3.5,97,0.02,CLR,,0.40,WeatherDisplay:10.37,2015-06-02 19:17:00,
2015-06-03 04:22:00,70.1,69.2,29.61,West,274,3.5,3.5,97,0.02,CLR,,0.40,WeatherDisplay:10.37,2015-06-02 19:22:00,
2015-06-03 04:27:00,70.0,69.4,29.60,West,273,3.5,3.5,98,0.03,RA,,0.41,WeatherDisplay:10.37,2015-06-02 19:27:00,
2015-06-03 04:32:00,69.8,69.2,29.61,West,274,6.0,6.0,98,0.03,RA,,0.41,WeatherDisplay:10.37,2015-06-02 19:32:00,
2015-06-03 04:37:00,69.5,68.6,29.61,WSW,241,4.6,4.6,97,0.03,RA,,0.42,WeatherDisplay:10.37,2015-06-02 19:37:00,
2015-06-03 04:42:00,69.3,68.7,29.61,West,270,4.6,4.6,98,0.04,RA,,0.43,WeatherDisplay:10.37,2015-06-02 19:42:00,
2015-06-03 04:47:00,69.1,68.5,29.61,West,268,5.8,5.8,98,0.04,RA,,0.43,WeatherDisplay:10.37,2015-06-02 19:47:00,
2015-06-03 04:52:00,69.0,68.1,29.61,West,273,3.5,3.5,97,0.03,,,0.43,WeatherDisplay:10.37,2015-06-02 19:52:00,
2015-06-03 04:57:00,68.9,68.0,29.61,West,279,4.6,4.6,97,0.03,RA,,0.43,WeatherDisplay:10.37,2015-06-02 19:57:00,
2015-06-03 05:02:00,68.8,67.9,29.61,West,272,6.9,6.9,97,0.03,RA,,0.43,WeatherDisplay:10.37,2015-06-02 20:02:00,
2015-06-03 05:07:00,68.8,68.2,29.61,West,264,4.6,4.6,98,0.03,CLR,,0.43,WeatherDisplay:10.37,2015-06-02 20:07:00,
2015-06-03 05:12:00,68.9,68.3,29.62,West,265,4.6,4.6,98,0.03,CLR,,0.43,WeatherDisplay:10.37,2015-06-02 20:12:00,
2015-06-03 05:17:00,68.9,68.3,29.62,West,274,5.0,5.0,98,0.03,CLR,,0.43,WeatherDisplay:10.37,2015-06-02 20:17:00,
2015-06-03 05:22:00,68.9,68.3,29.63,West,268,5.0,5.0,98,0.03,CLR,,0.43,WeatherDisplay:10.37,2015-06-02 20:22:00,
2015-06-03 05:27:00,68.9,68.3,29.63,WNW,293,9.2,9.2,98,0.02,CLR,,0.43,WeatherDisplay:10.37,2015-06-02 20:27:00,
2015-06-03 05:32:00,68.8,68.2,29.63,West,264,8.1,8.1,98,0.02,CLR,,0.43,WeatherDisplay:10.37,2015-06-02 20:32:00,
2015-06-03 05:37:00,68.8,68.2,29.63,West,279,5.8,5.8,98,0.02,CLR,,0.43,WeatherDisplay:10.37,2015-06-02 20:37:00,
2015-06-03 05:42:00,68.8,68.2,29.63,West,271,4.6,4.6,98,0.01,CLR,,0.43,WeatherDisplay:10.37,2015-06-02 20:42:00,
2015-06-03 05:47:00,68.8,68.2,29.63,West,271,2.3,2.3,98,0.01,CLR,,0.43,WeatherDisplay:10.37,2015-06-02 20:47:00,
2015-06-03 05:52:00,68.9,68.3,29.63,West,272,3.5,3.5,98,0.01,CLR,,0.43,WeatherDisplay:10.37,2015-06-02 20:52:00,
2015-06-03 05:57:00,68.8,68.2,29.63,West,261,3.5,3.5,98,0.00,CLR,,0.43,WeatherDisplay:10.37,2015-06-02 20:57:00,
2015-06-03 06:02:00,68.8,68.2,29.64,West,260,2.3,2.3,98,0.01,RA,,0.44,WeatherDisplay:10.37,2015-06-02 21:02:00,
2015-06-03 06:07:00,68.9,68.3,29.64,WNW,297,4.6,4.6,98,0.01,RA,,0.44,WeatherDisplay:10.37,2015-06-02 21:07:00,
2015-06-03 06:12:00,68.9,68.3,29.64,WNW,299,4.0,4.0,98,0.02,RA,,0.45,WeatherDisplay:10.37,2015-06-02 21:12:00,
2015-06-03 06:17:00,68.8,68.2,29.65,WNW,299,3.5,3.5,98,0.02,RA,,0.45,WeatherDisplay:10.37,2015-06-02 21:17:00,
2015-06-03 06:22:00,68.8,68.2,29.65,WNW,299,3.5,3.5,98,0.02,CLR,,0.45,WeatherDisplay:10.37,2015-06-02 21:22:00,
2015-06-03 06:27:00,68.9,68.3,29.65,WNW,299,3.5,3.5,98,0.02,RA,,0.46,WeatherDisplay:10.37,2015-06-02 21:27:00,
2015-06-03 06:32:00,68.9,68.3,29.65,WNW,293,3.5,3.5,98,0.02,RA,,0.46,WeatherDisplay:10.37,2015-06-02 21:32:00,
2015-06-03 06:37:00,68.9,68.3,29.65,WNW,292,3.5,3.5,98,0.02,CLR,,0.46,WeatherDisplay:10.37,2015-06-02 21:37:00,
2015-06-03 06:42:00,68.8,68.2,29.65,WNW,292,3.5,3.5,98,0.03,RA,,0.46,WeatherDisplay:10.37,2015-06-02 21:42:00,
2015-06-03 06:47:00,68.9,68.3,29.65,WNW,292,0.0,0.0,98,0.03,RA,,0.46,WeatherDisplay:10.37,2015-06-02 21:47:00,
2015-06-03 06:52:00,68.9,68.3,29.65,WNW,293,3.5,3.5,98,0.03,CLR,,0.46,WeatherDisplay:10.37,2015-06-02 21:52:00,
2015-06-03 06:57:00,68.9,68.3,29.65,WNW,293,3.5,3.5,98,0.04,RA,,0.47,WeatherDisplay:10.37,2015-06-02 21:57:00,
2015-06-03 07:02:00,68.9,68.3,29.66,NNW,328,5.8,5.8,98,0.03,RA,,0.47,WeatherDisplay:10.37,2015-06-02 22:02:00,
2015-06-03 07:07:00,68.9,68.3,29.66,WNW,301,4.0,4.0,98,0.03,CLR,,0.47,WeatherDisplay:10.37,2015-06-02 22:07:00,
2015-06-03 07:12:00,68.9,68.3,29.65,WNW,290,3.5,3.5,98,0.02,CLR,,0.47,WeatherDisplay:10.37,2015-06-02 22:12:00,
2015-06-03 07:17:00,68.8,68.2,29.66,NW,305,4.0,4.0,98,0.02,CLR,,0.47,WeatherDisplay:10.37,2015-06-02 22:17:00,
2015-06-03 07:22:00,68.8,68.2,29.66,NW,306,6.9,6.9,98,0.02,CLR,,0.47,WeatherDisplay:10.37,2015-06-02 22:22:00,
2015-06-03 07:27:00,68.8,68.2,29.66,NW,305,8.1,8.1,98,0.02,CLR,,0.47,WeatherDisplay:10.37,2015-06-02 22:27:00,
2015-06-03 07:32:00,68.9,68.3,29.66,WNW,289,3.5,3.5,98,0.02,CLR,,0.47,WeatherDisplay:10.37,2015-06-02 22:32:00,
2015-06-03 07:37:00,69.0,68.4,29.66,WNW,297,3.0,3.0,98,0.02,CLR,,0.47,WeatherDisplay:10.37,2015-06-02 22:37:00,
2015-06-03 07:42:00,69.0,68.4,29.66,West,270,3.5,3.5,98,0.01,CLR,,0.47,WeatherDisplay:10.37,2015-06-02 22:42:00,
2015-06-03 07:49:00,68.9,68.3,29.65,West,264,6.0,0.0,98,0.01,CLR,,0.47,WeatherDisplay:10.37,2015-06-02 22:49:00,
2015-06-03 07:54:00,68.9,68.3,29.65,WSW,255,4.0,4.0,98,0.01,RA,,0.47,WeatherDisplay:10.37,2015-06-02 22:54:00,
2015-06-03 07:59:00,68.9,68.3,29.66,West,268,4.6,4.6,98,0.01,RA,,0.47,WeatherDisplay:10.37,2015-06-02 22:59:00,